Location: Passau
(48.5830°N, 13.4830°E)
Time: 02:08:39
(UTC+01:00)

NOAA 19 - Pass Details

Date: 04 December 2021
Orbit: 841 x 860 km, 99.2° (Epoch: 17 January)

Event Time Altitude Azimuth Distance (km) Brightness Sun altitude
Rises 19:33:52 0° 191° (SSW) 3,383 8.4 -32.5°
Reaches altitude 10° 19:36:28 10° 201° (SSW) 2,454 7.8 -32.9°
Maximum altitude 19:41:18 32° 264° (W) 1,408 6.8 -33.7°
Drops below altitude 10° 19:46:11 10° 327° (NNW) 2,477 8.0 -34.5°
Sets 19:48:50 0° 338° (NNW) 3,419 8.7 -35.0°
